DateTimeUTC,F1_A11,F1_S11,BsB_S11,BsG_S11,BsR_S11,BbsB_S11,BbsG_S11,BbsR_S11,BaB_A11,BaG_A11,BaR_A11,Tu_S11,T_S11,Uu_S11,U_S11,P_S11,T1_A11
2021-08-09T17:00:00Z,00000200,20000000,,,,,,,0000.19,0000.48,-000.09,19.3,25.8,09.5,06.4,0670.3,31.0
2021-08-09T17:01:00Z,00000200,20000000,,,,,,,-000.35,-000.26,0000.15,19.3,25.8,09.4,06.3,0670.3,31.1
2021-08-09T17:02:00Z,00000200,20000000,,,,,,,0000.61,-000.09,0000.12,19.3,25.8,09.4,06.3,0670.3,31.0
2021-08-09T17:03:00Z,00000200,60000000,,,,,,,-000.06,0000.43,0000.01,19.3,25.8,09.4,06.3,0670.3,31.0
2021-08-09T17:04:00Z,00000200,40000000,0001.86,0000.78,0000.44,0000.29,-000.01,0000.03,0000.17,0000.26,0000.16,19.4,25.6,09.5,06.5,0671.2,31.0
2021-08-09T17:05:00Z,00000200,00000000,0000.90,0001.19,0000.43,0000.11,-000.05,0000.12,0000.09,-000.13,0000.13,19.5,25.6,09.5,06.5,0671.2,31.0
2021-08-09T17:06:00Z,00000200,00000000,0001.48,0000.93,0000.69,0000.34,0000.24,0000.49,0000.38,0000.46,0000.38,19.5,25.6,09.6,06.6,0671.2,31.0
2021-08-09T17:07:00Z,00000200,00000000,0001.74,0001.16,0000.41,0000.63,-000.00,-000.27,0000.00,0000.05,0000.10,19.5,25.6,09.7,06.7,0671.2,31.0
2021-08-09T17:08:00Z,00000200,00000000,0001.90,0000.80,0000.23,0000.01,0000.15,-000.07,0000.41,0000.16,0000.18,19.5,25.6,09.7,06.7,0671.2,31.0
2021-08-09T17:09:00Z,00000200,00000000,0000.95,0000.72,0000.51,0000.96,-000.19,-000.11,0000.32,0000.38,0000.88,19.5,25.6,09.8,06.8,0671.3,31.0
2021-08-09T17:10:00Z,00000200,00000000,0001.08,0000.45,0000.35,0000.47,0000.15,0000.28,-000.43,-000.56,-000.92,19.5,25.6,09.8,06.8,0671.2,31.0
2021-08-09T17:11:00Z,00000200,00000000,0000.95,0000.75,0000.28,0000.01,-000.10,-000.05,0000.16,0000.27,0000.20,19.5,25.6,09.7,06.7,0671.2,31.1
2021-08-09T17:12:00Z,00000200,00000000,0001.51,0000.67,0000.67,-000.07,0000.13,0000.18,0000.24,0000.17,0000.44,19.5,25.6,09.7,06.7,0671.2,31.0
2021-08-09T17:13:00Z,00000200,00000000,0001.66,0000.95,-000.11,0000.36,-000.11,0000.03,-000.30,0000.15,0000.06,19.5,25.6,09.7,06.7,0671.2,31.1
2021-08-09T17:14:00Z,00000200,00000000,0001.41,0000.71,0000.37,0000.33,-000.01,-000.17,0000.48,0000.51,0000.35,19.5,25.6,09.6,06.6,0671.2,31.1
2021-08-09T17:15:00Z,00000200,00000000,0001.23,0000.92,0000.68,0000.18,-000.00,0000.02,0000.06,-000.44,-000.30,19.5,25.5,09.6,06.6,0671.2,31.0
2021-08-09T17:16:00Z,00000200,00000000,0001.07,0000.64,0000.64,0000.51,0000.19,-000.17,-000.01,-000.06,0000.07,19.5,25.6,09.7,06.7,0671.2,31.0
2021-08-09T17:17:00Z,00000200,00000000,0001.72,0000.49,0000.47,-000.04,-000.02,-000.07,-000.13,0000.05,-000.26,19.5,25.5,09.5,06.6,0671.2,31.0
2021-08-09T17:18:00Z,00000200,00000000,0000.55,0000.88,0000.27,-000.10,-000.12,0000.10,0000.40,0000.21,0000.53,19.5,25.6,09.5,06.6,0671.3,31.0
2021-08-09T17:19:00Z,00000200,00000000,0001.74,0000.64,0000.67,-000.09,0000.03,0000.11,-000.19,-000.00,0000.01,19.5,25.5,09.6,06.6,0671.3,31.0
2021-08-09T17:20:00Z,00000200,00000000,0001.23,0000.44,0000.53,-000.09,-000.07,0000.03,0000.25,0000.36,0000.37,19.5,25.6,09.5,06.5,0671.3,31.0
2021-08-09T17:21:00Z,00000200,00000000,0001.26,0000.77,0000.36,0000.79,0000.12,0000.15,0000.04,-000.04,-000.15,19.5,25.5,09.6,06.6,0671.3,31.0
2021-08-09T17:22:00Z,00000200,00000000,0000.82,0001.08,0000.70,0000.54,-000.12,0000.27,0000.34,0000.36,0000.51,19.5,25.5,09.7,06.7,0671.3,31.0
2021-08-09T17:23:00Z,00000200,00000000,0001.18,0000.82,0000.35,-000.15,0000.38,0000.12,-000.08,0000.12,0000.08,19.5,25.5,09.7,06.7,0671.3,31.0
2021-08-09T17:24:00Z,00000200,00000000,0001.37,0001.03,0000.14,0000.10,0000.27,-000.20,0000.49,0000.39,0000.29,19.5,25.5,09.7,06.7,0671.4,31.0
2021-08-09T17:25:00Z,00000200,00000000,0001.49,0000.90,0000.49,0000.53,0000.22,0000.04,0000.24,0000.24,0000.22,19.5,25.5,09.8,06.8,0671.3,31.0
2021-08-09T17:26:00Z,00000200,00000000,0001.17,0000.63,0000.36,0000.39,0000.07,-000.13,-000.26,-000.31,0000.17,19.5,25.5,09.8,06.8,0671.3,31.0
2021-08-09T17:27:00Z,00000200,00000000,0000.97,0000.69,0000.56,0000.12,-000.11,0000.05,0000.52,0000.10,-000.22,19.5,25.6,09.8,06.8,0671.3,31.1
2021-08-09T17:28:00Z,00000200,00000000,0001.01,0000.79,0000.49,0000.25,0000.38,-000.27,0000.01,0000.59,0000.42,19.5,25.5,09.9,06.8,0671.3,31.1
2021-08-09T17:29:00Z,00000200,00000000,0000.73,0000.41,0000.67,0000.25,0000.02,0000.35,0000.15,-000.20,0000.18,19.5,25.5,09.7,06.7,0671.3,31.0
2021-08-09T17:30:00Z,00000200,00000000,0000.92,0000.72,0000.55,0000.22,-000.07,0000.04,-000.30,-000.26,-000.56,19.5,25.5,09.8,06.8,0671.2,31.0
2021-08-09T17:31:00Z,00000200,00000000,0002.06,0001.11,0000.64,0000.45,-000.07,-000.19,-000.89,-001.29,-001.14,19.5,25.5,09.4,06.5,0671.1,31.0
2021-08-09T17:32:00Z,00000200,00000000,0001.32,0001.21,0000.76,0000.59,0000.07,0000.09,0000.68,0000.95,0001.19,19.5,25.5,09.1,06.3,0671.2,31.1
2021-08-09T17:33:00Z,00000200,00000000,0002.35,0001.19,0001.03,0000.69,-000.06,-000.25,-000.49,-000.18,-000.36,19.5,25.5,09.5,06.5,0671.2,31.0
2021-08-09T17:34:00Z,00000200,00000000,0002.34,0001.86,0001.12,0000.43,0000.48,-000.08,-000.42,-000.36,0000.20,19.5,25.5,09.0,06.2,0671.3,31.0
2021-08-09T17:35:00Z,00000200,00000000,0002.09,0001.59,0000.95,0000.68,0000.11,0000.06,0000.51,0000.19,-000.57,19.5,25.5,08.9,06.2,0671.3,31.0
2021-08-09T17:36:00Z,00000200,00000000,0001.46,0001.52,0001.35,0000.36,0000.50,0000.12,0000.33,0000.27,0000.40,19.5,25.5,09.0,06.2,0671.3,31.0
2021-08-09T17:37:00Z,00000200,00000000,0002.05,0001.57,0000.98,0000.74,0000.22,0000.02,0000.14,0000.40,0000.45,19.5,25.5,08.8,06.1,0671.3,31.0
2021-08-09T17:38:00Z,00000200,00000000,0002.14,0001.60,0001.09,-000.16,0000.39,-000.02,0000.24,0000.53,0000.36,19.5,25.5,08.8,06.1,0671.3,31.0
2021-08-09T17:39:00Z,00000200,00000000,0001.64,0001.28,0000.86,0000.24,0000.22,0000.02,0000.14,-000.04,0000.05,19.5,25.5,08.8,06.1,0671.3,31.0
2021-08-09T17:40:00Z,00000200,00000000,0002.57,0001.88,0000.70,0000.36,0000.25,0000.17,0000.29,0000.23,-000.02,19.5,25.5,08.8,06.1,0671.3,31.0
2021-08-09T17:41:00Z,00000200,00000000,0001.91,0001.59,0000.85,0000.27,0000.42,-000.02,0000.31,0000.52,0000.78,19.5,25.5,08.8,06.1,0671.3,31.0
2021-08-09T17:42:00Z,00000200,00000000,0001.80,0001.47,0000.83,0000.45,0000.17,-000.03,0000.95,0000.38,0000.41,19.5,25.5,08.9,06.2,0671.4,31.0
2021-08-09T17:43:00Z,00000200,00000000,0001.67,0001.22,0000.78,0000.20,0000.11,0000.12,0000.15,0000.65,0000.22,19.5,25.5,09.1,06.3,0671.4,31.1
2021-08-09T17:44:00Z,00000200,00000000,0002.03,0001.04,0000.57,-000.23,0000.02,-000.14,0000.37,0000.06,0000.39,19.4,25.5,09.1,06.3,0671.4,31.0
2021-08-09T17:45:00Z,00000200,00000000,0001.95,0001.54,0001.03,-000.01,0000.31,0000.03,0000.14,0000.34,0000.05,19.4,25.5,09.2,06.3,0671.4,31.0
2021-08-09T17:46:00Z,00000200,00000000,0002.58,0001.31,0000.96,0000.03,0000.10,0000.07,0000.88,0000.61,0001.08,19.4,25.5,09.1,06.3,0671.4,31.0
2021-08-09T17:47:00Z,00000200,00000000,0002.20,0001.36,0000.94,0000.31,0000.25,-000.27,-000.10,0000.12,-000.47,19.4,25.5,09.3,06.4,0671.4,31.0
2021-08-09T17:48:00Z,00000200,00000000,0001.43,0001.37,0000.97,-000.21,0000.36,-000.41,0000.38,0000.42,0000.25,19.4,25.5,09.1,06.3,0671.4,31.0
2021-08-09T17:49:00Z,00000200,00000000,0000.90,0001.36,0000.46,0000.04,0000.15,-000.34,0000.49,0000.02,0000.72,19.5,25.5,09.2,06.4,0671.4,31.0
2021-08-09T17:50:00Z,00000200,00000000,0002.03,0001.47,0000.58,-000.06,0000.30,-000.19,0000.31,0000.61,0000.26,19.5,25.5,09.3,06.5,0671.5,31.0
2021-08-09T17:51:00Z,00000200,00000000,0001.78,0001.44,0001.13,0000.21,-000.00,0000.50,0000.29,0000.09,0000.30,19.5,25.5,09.4,06.5,0671.5,31.1
2021-08-09T17:52:00Z,00000200,00000000,0001.70,0001.30,0000.75,0000.42,0000.11,0000.25,0000.41,0000.84,0000.47,19.4,25.5,09.4,06.5,0671.5,31.0
2021-08-09T17:53:00Z,00000200,00000000,0001.70,0001.27,0000.99,-000.04,0000.24,0000.25,0000.54,0000.44,0000.26,19.4,25.5,09.5,06.6,0671.5,31.0
2021-08-09T17:54:00Z,00000200,00000000,0000.81,0001.56,0000.91,0000.61,-000.03,-000.20,-000.21,-000.16,0000.16,19.4,25.5,09.6,06.6,0671.5,31.0
2021-08-09T17:55:00Z,00000200,00000000,0001.19,0001.41,0000.94,0000.36,0000.25,0000.01,0000.53,0000.62,0000.05,19.5,25.5,09.5,06.6,0671.4,31.0
2021-08-09T17:56:00Z,00000200,00000000,0001.50,0001.32,0001.15,0000.08,0000.08,0000.20,0000.07,-000.15,0000.19,19.5,25.5,09.4,06.5,0671.4,31.0
2021-08-09T17:57:00Z,00000200,40000000,,,,,,,0000.28,0000.16,0000.35,19.5,25.5,09.1,06.3,0671.5,31.0
2021-08-09T17:58:00Z,00000200,60000000,,,,,,,-000.10,-000.17,-000.27,19.2,25.6,09.6,06.5,0670.4,31.0
2021-08-09T17:59:00Z,00000200,20000000,,,,,,,-000.05,-000.07,0000.31,19.2,25.7,09.7,06.5,0670.4,31.0
